Location: Newark
(25.0000°N, 73.5000°E)
Time: 00:45:06
(UTC+00:00)

Tiros 1 despin weight - Pass Details

Date: 09 March 2021
Orbit: 593 x 641 km, 48.2° (Epoch: 15 April)

Event Time Altitude Azimuth Distance (km) Brightness Sun altitude
Rises 14:25:36 0° 216° (SW) 2,817 ? -17.5°
Reaches altitude 10° 14:27:53 10° 212° (SSW) 1,922 ? -18.0°
Maximum altitude 14:32:13 59° 133° (SE) 692 ? -18.9°
Enters shadow 14:33:20 44° 79° (E) 833 ? -19.2°
Drops below altitude 10° 14:36:38 10° 54° (NE) 1,953 - -19.9°
Sets 14:38:58 0° 50° (NE) 2,867 - -20.5°
